[[{"header":{"parameterUnit":"m.s-1","parameterCategory":2,"la1":30.2991,"la2":30.254,"lo1":-89.0895,"lo2":-89.0444,"dy":0.0017,"dx":0.0017,"nx":28,"ny":28,"refTime":"2023-11-20T03:00:00:Z","depth":"0","parameterNumber":2,"parameterNumberName":"U-component_of_CURRENTS"},"data":[0,0,0,0,0,0,0,0,0,0,0,0,0,0,0,0,0,0,0,0,0,0,0,0,0,0,0,0,0,0,0,0,0,0,0,0,0,0,0,0,0,0,0,0,0,0,0,0,0,0,0,0,0,0,0,0,0,0,-0.3966,-0.3965,0,-0.386,-0.3858,-0.3857,-0.3748,-0.3746,-0.3745,-0.3744,-0.3548,-0.3544,-0.354,0,0,0,0,0,0,0,0,0,0,0,0,0,-0.4016,-0.4016,-0.3967,-0.3965,-0.3964,-0.386,-0.3858,-0.3857,-0.3748,-0.3746,-0.3745,-0.3743,-0.3549,-0.3544,-0.354,0,0,0,0,0,0,0,0,0,0,0,0,0,-0.396,-0.4016,-0.3967,-0.3898,-0.389,-0.386,-0.3858,-0.3856,-0.3748,-0.3746,-0.3744,-0.3742,-0.3551,-0.3545,-0.3539,-0.3546,0,0,-0.3521,-0.3519,0,0,0,0,0,0,0,0,-0.3964,-0.3958,-0.3909,-0.3902,-0.3894,-0.3815,-0.3804,-0.3748,-0.3749,-0.3802,-0.3744,-0.3741,-0.3631,-0.3619,-0.3603,-0.3537,-0.3528,-0.3521,-0.3517,-0.3515,-0.3513,0,0,0,0,0,0,0,-0.3968,-0.3962,-0.3923,-0.3908,-0.3899,-0.3851,-0.3842,-0.3793,-0.3728,-0.3797,-0.3789,-0.3779,-0.3626,-0.361,-0.3598,-0.3526,-0.3521,-0.3516,-0.3512,-0.351,-0.3503,-0.3506,0,0,0,0,0,0,-0.3988,-0.3966,-0.3927,-0.392,-0.3925,-0.3853,-0.3841,-0.3842,-0.373,-0.3711,-0.3781,-0.3774,-0.362,-0.3605,-0.359,-0.3579,-0.3515,-0.3509,-0.3506,-0.35,-0.3504,-0.3507,0,0,0,0,0,0,-0.399,-0.3986,-0.3931,-0.394,-0.393,-0.3855,-0.3856,-0.3841,-0.3823,-0.3719,-0.3698,-0.3777,-0.3618,-0.3599,-0.3572,-0.3571,-0.3507,-0.3501,-0.3496,-0.3501,-0.3506,-0.3564,0,0,0,0,0,0,-0.3992,-0.3988,-0.3986,-0.3943,-0.393,-0.3928,-0.3858,-0.3841,-0.382,-0.3811,-0.3709,-0.3688,-0.3615,-0.3582,-0.3567,-0.3561,-0.3497,-0.3492,-0.3498,-0.3504,-0.3558,-0.357,-0.3581,0,0,0,0,0,-0.3994,-0.3985,-0.3987,-0.3981,-0.3934,-0.393,-0.3921,-0.3857,-0.3823,-0.383,-0.3772,-0.3691,-0.3611,-0.358,-0.3561,-0.3554,-0.3489,-0.3496,-0.3504,-0.3552,-0.3568,-0.358,0,0,0,0,0,0,-0.3984,-0.3973,-0.3972,-0.3956,-0.396,-0.3912,-0.3881,-0.3874,-0.3835,-0.381,-0.3724,-0.3701,-0.3682,-0.3636,-0.3605,-0.3584,-0.3541,-0.3545,-0.3585,-0.3598,-0.361,-0.3482,-0.3492,0,0,0,0,0,-0.3994,-0.3956,-0.399,-0.3948,-0.3971,-0.3941,-0.3926,-0.3909,-0.3872,-0.3851,-0.3791,-0.3736,-0.3703,-0.3665,-0.3631,-0.3608,-0.3498,-0.3604,-0.3615,-0.3624,-0.3517,-0.3393,-0.338,-0.3532,-0.3532,-0.3532,0,0,-0.3929,-0.3942,-0.3896,-0.394,-0.3919,-0.3906,-0.3924,-0.391,-0.3875,-0.3836,-0.3764,-0.3775,-0.3716,-0.3694,-0.368,-0.3644,-0.3548,-0.3634,-0.3641,-0.3525,-0.3399,-0.3382,-0.3367,-0.3537,-0.3536,-0.3535,0,0,-0.3775,-0.3856,-0.3771,-0.3815,-0.384,-0.3869,-0.3883,-0.3892,-0.3887,-0.3872,-0.3838,-0.3838,-0.3785,-0.3732,-0.3699,-0.3757,-0.3627,-0.3793,-0.371,-0.3597,-0.3579,-0.3562,-0.348,-0.3454,-0.378,-0.378,-0.3781,0,-0.3687,-0.3661,-0.3745,-0.3721,-0.3739,-0.3855,-0.3816,-0.3838,-0.3827,-0.3814,-0.385,-0.3775,-0.3772,-0.3682,-0.3725,-0.3763,-0.3688,-0.3657,-0.3599,-0.358,-0.356,-0.3479,-0.345,-0.3784,-0.3784,-0.3783,-0.3783,0,-0.3501,-0.3506,-0.3482,-0.3494,-0.3533,-0.3548,-0.3637,-0.3671,-0.3724,-0.3728,-0.371,-0.3728,-0.3666,-0.372,-0.3728,-0.3626,-0.3619,-0.364,-0.3537,-0.3546,-0.3465,-0.3433,-0.3789,-0.3788,-0.3787,-0.3786,0,0,-0.3245,-0.3324,-0.3324,-0.334,-0.3459,-0.3478,-0.3476,-0.3523,-0.3482,-0.3547,-0.346,-0.3503,-0.3548,-0.3514,-0.3564,-0.3476,-0.3372,-0.35,-0.3493,-0.3367,-0.3121,-0.3069,-0.303,-0.3378,-0.3372,-0.3366,-0.3143,0,-0.3081,-0.3034,-0.3116,-0.3082,-0.3105,-0.3254,-0.323,-0.3283,-0.3349,-0.3318,-0.3375,-0.334,-0.3464,-0.3462,-0.3403,-0.3394,-0.3277,-0.3429,-0.3167,-0.3158,-0.3067,-0.2985,-0.2893,-0.2678,-0.3111,-0.3106,-0.3102,0,-0.29,-0.293,-0.2875,-0.2957,-0.2973,-0.296,-0.3023,-0.302,-0.3039,-0.3073,-0.3069,-0.3124,-0.3089,-0.3176,-0.3056,-0.3154,-0.31,-0.3068,-0.306,-0.2924,-0.3041,-0.2728,-0.2602,-0.261,-0.3052,-0.3056,-0.3059,0,-0.2761,-0.278,-0.276,-0.2792,-0.2869,-0.2855,-0.2901,-0.2928,-0.2944,-0.2915,-0.2914,-0.2878,-0.2887,-0.2803,-0.2858,-0.293,-0.2669,-0.2774,-0.2636,-0.2636,-0.2445,-0.2437,-0.2221,-0.2539,-0.254,-0.254,-0.2541,0,-0.2635,-0.2618,-0.2699,-0.2703,-0.2659,-0.2749,-0.2699,-0.272,-0.2742,-0.2715,-0.2792,-0.2744,-0.2784,-0.2719,-0.2719,-0.2589,-0.2569,-0.2525,-0.2527,-0.2482,-0.248,-0.2389,-0.2452,-0.2532,-0.2534,-0.2535,-0.2537,0,-0.2459,-0.2533,-0.2501,-0.2568,-0.2589,-0.2551,-0.2631,-0.262,-0.2642,-0.26,-0.2599,-0.2633,-0.2543,-0.2549,-0.2406,-0.242,-0.2241,-0.222,-0.219,-0.2188,-0.2096,-0.2169,-0.1862,-0.1811,-0.2012,-0.2009,-0.2006,0,-0.2356,-0.2312,-0.2365,-0.2384,-0.2414,-0.2424,-0.2451,-0.2537,-0.2558,-0.2526,-0.2503,-0.2418,-0.2323,-0.2139,-0.2094,-0.1971,-0.2038,-0.183,-0.1924,-0.1975,-0.2058,-0.2133,-0.212,-0.1741,-0.1737,-0.1733,-0.173,0,-0.2131,-0.2137,-0.2146,-0.2185,-0.2231,-0.2247,-0.2308,-0.2293,-0.2371,-0.2306,-0.2173,-0.2065,-0.197,-0.1816,-0.1728,-0.167,-0.181,-0.1745,-0.1764,-0.174,-0.1826,-0.182,-0.2063,-0.1695,-0.1698,-0.1701,-0.1703,-0.1704,-0.1939,-0.1894,-0.1935,-0.1959,-0.2028,-0.2021,-0.1937,-0.1992,-0.1893,-0.1726,-0.1806,-0.1574,-0.1659,-0.1509,-0.1458,-0.1405,-0.1495,-0.1403,-0.1464,-0.1518,-0.1499,-0.1672,-0.1345,-0.1346,-0.1348,-0.1349,-0.135,0,-0.1717,-0.1725,-0.1734,-0.175,-0.1753,-0.1848,-0.182,-0.17,-0.1468,-0.1363,-0.1192,-0.115,-0.1096,-0.1193,-0.1229,-0.1175,-0.118,-0.1164,-0.1244,-0.1228,-0.1311,-0.1334,-0.1028,-0.1028,-0.1028,-0.1028,-0.1028,-0.1028,-0.1607,-0.1555,-0.1584,-0.1499,-0.1508,-0.1384,-0.13,-0.1117,-0.0997,-0.0693,-0.0584,-0.0588,-0.0872,-0.1161,-0.1179,-0.1118,-0.1137,-0.1068,-0.1124,-0.123,-0.1259,-0.1287,-0.1319,-0.1015,-0.1015,-0.0985,-0.0985,-0.0985]},{"header":{"parameterUnit":"m.s-1","parameterCategory":2,"la1":30.2991,"la2":30.254,"lo1":-89.0895,"lo2":-89.0444,"dy":0.0017,"dx":0.0017,"nx":28,"ny":28,"refTime":"2023-11-20T03:00:00:Z","depth":"0","parameterNumber":3,"parameterNumberName":"V-component_of_CURRENTS"},"data":[0,0,0,0,0,0,0,0,0,0,0,0,0,0,0,0,0,0,0,0,0,0,0,0,0,0,0,0,0,0,0,0,0,0,0,0,0,0,0,0,0,0,0,0,0,0,0,0,0,0,0,0,0,0,0,0,0,0,0.0389,0.0389,0,0.0436,0.0436,0.0437,0.0481,0.0481,0.0482,0.0482,0.055,0.0551,0.0553,0,0,0,0,0,0,0,0,0,0,0,0,0,0.037,0.037,0.0388,0.0389,0.0389,0.0436,0.0436,0.0437,0.0481,0.0481,0.0482,0.0482,0.0549,0.0551,0.0553,0,0,0,0,0,0,0,0,0,0,0,0,0,0.0395,0.037,0.0388,0.0416,0.0419,0.0435,0.0436,0.0437,0.0481,0.0481,0.0482,0.0482,0.0549,0.0551,0.0553,0.0553,0,0,0.0559,0.056,0,0,0,0,0,0,0,0,0.0393,0.0396,0.0411,0.0414,0.0417,0.0452,0.0455,0.0477,0.048,0.0458,0.0482,0.0483,0.0518,0.0523,0.0531,0.0556,0.0559,0.056,0.0561,0.0562,0.0562,0,0,0,0,0,0,0,0.0392,0.0394,0.0408,0.0412,0.0415,0.0438,0.0442,0.0459,0.0485,0.046,0.0463,0.0467,0.052,0.0529,0.0533,0.056,0.056,0.0561,0.0563,0.0564,0.0662,0.0663,0,0,0,0,0,0,0.0381,0.0392,0.0407,0.041,0.0406,0.0437,0.0442,0.0441,0.0484,0.0491,0.0466,0.0468,0.0525,0.0531,0.0536,0.0566,0.0562,0.0564,0.0565,0.066,0.0662,0.0664,0,0,0,0,0,0,0.038,0.0382,0.0405,0.0401,0.0406,0.0436,0.0436,0.0442,0.0454,0.0488,0.0496,0.0472,0.0526,0.0533,0.0556,0.0568,0.0565,0.0567,0.0659,0.0661,0.0663,0.0608,0,0,0,0,0,0,0.038,0.0381,0.0368,0.04,0.0406,0.0417,0.0435,0.0442,0.0454,0.0458,0.0496,0.0503,0.0527,0.0552,0.0558,0.057,0.0568,0.0657,0.066,0.0662,0.0608,0.0607,0.0607,0,0,0,0,0,0.0379,0.0353,0.0367,0.0368,0.0389,0.0417,0.0422,0.0447,0.0453,0.0459,0.0484,0.0502,0.0574,0.0554,0.056,0.0574,0.0656,0.0659,0.0662,0.0608,0.0608,0.0607,0,0,0,0,0,0,0.0316,0.0356,0.0372,0.0353,0.0386,0.0424,0.0418,0.0442,0.0466,0.0465,0.0501,0.051,0.0548,0.0567,0.0545,0.0616,0.0625,0.0629,0.0582,0.0582,0.0582,0.0499,0.057,0,0,0,0,0,0.0301,0.029,0.0346,0.0318,0.0344,0.0382,0.0391,0.0417,0.0444,0.0455,0.0485,0.0523,0.0565,0.0575,0.0618,0.0632,0.0634,0.0655,0.0654,0.0654,0.0595,0.0587,0.0579,0.0673,0.0673,0.0673,0,0,0.0245,0.0278,0.0257,0.0305,0.0329,0.0338,0.039,0.0404,0.0401,0.0458,0.0459,0.0524,0.0574,0.0607,0.0625,0.0619,0.065,0.0657,0.0656,0.0596,0.0589,0.0579,0.057,0.0676,0.0675,0.0675,0,0,0.0146,0.0187,0.0157,0.0196,0.0249,0.0292,0.0298,0.0354,0.0378,0.0404,0.0452,0.0502,0.0563,0.0591,0.0615,0.0633,0.0659,0.068,0.059,0.0586,0.0576,0.0567,0.0634,0.0631,0.0665,0.0665,0.0665,0,0.0074,0.0064,0.0147,0.0151,0.0158,0.0268,0.0242,0.029,0.0339,0.034,0.0401,0.0483,0.0546,0.0551,0.0576,0.0626,0.0645,0.0583,0.0578,0.0569,0.056,0.063,0.0628,0.0663,0.0663,0.0663,0.0664,0,-0.0014,-0.0028,-0.0036,0.0004,0.0031,0.0033,0.0122,0.0152,0.0215,0.0256,0.0303,0.0399,0.0431,0.0499,0.0542,0.0526,0.0575,0.0587,0.0561,0.0546,0.0625,0.0622,0.066,0.066,0.0661,0.0662,0,0,-0.0157,-0.0118,-0.0116,-0.013,-0.0042,-0.003,-0.0017,0.002,0.002,0.0116,0.0102,0.0217,0.0278,0.0307,0.0393,0.04,0.0421,0.0456,0.0457,0.0492,0.0453,0.0521,0.0527,0.0421,0.0419,0.0417,0.0558,0,-0.0255,-0.0302,-0.0243,-0.0296,-0.0311,-0.0212,-0.0206,-0.0156,-0.0076,-0.0042,0.0061,0.0111,0.0206,0.0247,0.0262,0.039,0.0399,0.0383,0.0486,0.049,0.0524,0.0519,0.0563,0.0691,0.0556,0.0556,0.0556,0,-0.0337,-0.0356,-0.0433,-0.0441,-0.0434,-0.0437,-0.0401,-0.0383,-0.03,-0.024,-0.019,-0.0083,-0.0022,0.0064,0.0192,0.0178,0.0279,0.0376,0.0384,0.0437,0.0549,0.0673,0.0693,0.0829,0.0553,0.0553,0.0553,0,-0.0448,-0.0483,-0.0553,-0.0551,-0.053,-0.055,-0.0527,-0.0456,-0.0421,-0.0369,-0.0307,-0.0248,-0.0145,-0.0073,0.0168,0.0162,0.0325,0.0348,0.0497,0.0508,0.0554,0.0571,0.0672,0.0369,0.0368,0.0368,0.0367,0,-0.0553,-0.0604,-0.0608,-0.0639,-0.0701,-0.0654,-0.0678,-0.0642,-0.0564,-0.0463,-0.0415,-0.03,-0.018,-0.003,0.0111,0.0328,0.0281,0.0458,0.0519,0.0552,0.0565,0.0692,0.0741,0.0373,0.0372,0.0371,0.037,0,-0.0651,-0.0661,-0.0734,-0.075,-0.0754,-0.079,-0.0746,-0.0722,-0.0655,-0.0517,-0.049,-0.0337,-0.0141,0.0008,0.0197,0.0311,0.0564,0.0547,0.0618,0.0681,0.0902,0.0946,0.1058,0.1148,0.0699,0.0701,0.0703,0,-0.0703,-0.0755,-0.0807,-0.0839,-0.0844,-0.0873,-0.0849,-0.0782,-0.068,-0.0466,-0.0354,-0.0199,0.0006,0.026,0.042,0.0614,0.07,0.077,0.0728,0.0896,0.0991,0.1012,0.1081,0.0823,0.0826,0.0828,0.083,0,-0.0791,-0.0805,-0.0855,-0.0921,-0.0926,-0.0871,-0.0792,-0.0712,-0.0514,-0.0345,-0.0012,0.0124,0.0304,0.0511,0.0646,0.0762,0.0865,0.0819,0.0949,0.1035,0.1103,0.1228,0.0809,0.0848,0.0846,0.0845,0.0844,0.0843,-0.0829,-0.0883,-0.0935,-0.0988,-0.0946,-0.0753,-0.0653,-0.045,-0.0194,0.0199,0.0315,0.0612,0.0644,0.0816,0.0948,0.1117,0.1054,0.1179,0.1213,0.1216,0.1291,0.0936,0.1059,0.1058,0.1057,0.1057,0.1057,0,-0.0869,-0.092,-0.0987,-0.0939,-0.0793,-0.0774,-0.0518,-0.0329,0.0083,0.0432,0.0787,0.1092,0.1182,0.1206,0.1337,0.15,0.1527,0.1563,0.1595,0.1641,0.1302,0.1294,0.1523,0.1523,0.1523,0.1523,0.1523,0.1522,-0.0891,-0.0968,-0.1002,-0.0785,-0.0679,-0.0406,-0.021,0.0103,0.0376,0.0913,0.1235,0.1443,0.144,0.1632,0.181,0.1838,0.1991,0.1963,0.2044,0.1806,0.1772,0.174,0.1745,0.2065,0.2065,0.2381,0.2384,0.2387]}],[{"header":{"parameterUnit":"m.s-1","parameterCategory":2,"la1":30.2991,"la2":30.254,"lo1":-89.0895,"lo2":-89.0444,"dy":0.0017,"dx":0.0017,"nx":28,"ny":28,"refTime":"2023-11-20T03:00:00:Z","depth":"2","parameterNumber":2,"parameterNumberName":"U-component_of_CURRENTS"},"data":[0,0,0,0,0,0,0,0,0,0,0,0,0,0,0,0,0,0,0,0,0,0,0,0,0,0,0,0,0,0,0,0,0,0,0,0,0,0,0,0,0,0,0,0,0,0,0,0,0,0,0,0,0,0,0,0,0,0,-0.2033,-0.2034,0,-0.2132,-0.2133,-0.2134,-0.2211,-0.2212,-0.2213,-0.2214,-0.2389,-0.2393,-0.2396,0,0,0,0,0,0,0,0,0,0,0,0,0,-0.1916,-0.1918,-0.2033,-0.2034,-0.2036,-0.2132,-0.2133,-0.2134,-0.2211,-0.2212,-0.2214,-0.2215,-0.2388,-0.2392,-0.2397,0,0,0,0,0,0,0,0,0,0,0,0,0,-0.1981,-0.1918,-0.2032,-0.209,-0.2096,-0.2132,-0.2133,-0.2134,-0.221,-0.2212,-0.2214,-0.2216,-0.2387,-0.2392,-0.2397,-0.2393,0,0,-0.2413,-0.2416,0,0,0,0,0,0,0,0,-0.1977,-0.1985,-0.208,-0.2086,-0.2094,-0.2166,-0.2157,-0.2226,-0.221,-0.2161,-0.2214,-0.2217,-0.2324,-0.2334,-0.234,-0.2401,-0.2408,-0.2414,-0.2417,-0.2419,-0.2421,0,0,0,0,0,0,0,-0.1973,-0.1981,-0.2067,-0.2081,-0.209,-0.2114,-0.2124,-0.2169,-0.2228,-0.2166,-0.2173,-0.2192,-0.2328,-0.2335,-0.2345,-0.2411,-0.2414,-0.2418,-0.2421,-0.2424,-0.2478,-0.2476,0,0,0,0,0,0,-0.1969,-0.1977,-0.2064,-0.207,-0.2045,-0.2115,-0.2126,-0.2136,-0.2226,-0.2243,-0.219,-0.2195,-0.2325,-0.2339,-0.2352,-0.2352,-0.2419,-0.2424,-0.2427,-0.248,-0.2477,-0.2476,0,0,0,0,0,0,-0.1966,-0.1975,-0.206,-0.203,-0.2044,-0.2115,-0.2126,-0.2137,-0.2173,-0.2245,-0.2262,-0.2218,-0.2327,-0.2344,-0.2419,-0.236,-0.2426,-0.2431,-0.2482,-0.2479,-0.2477,-0.2354,0,0,0,0,0,0,-0.1962,-0.1973,-0.1984,-0.203,-0.2045,-0.209,-0.2125,-0.2138,-0.2183,-0.2191,-0.2274,-0.229,-0.233,-0.241,-0.2424,-0.2369,-0.2435,-0.2484,-0.248,-0.2477,-0.236,-0.2348,-0.2337,0,0,0,0,0,-0.1957,-0.1982,-0.1984,-0.1996,-0.2056,-0.2091,-0.21,-0.2153,-0.2183,-0.2193,-0.2259,-0.2289,-0.2397,-0.2415,-0.2431,-0.2375,-0.2485,-0.2481,-0.2478,-0.2366,-0.235,-0.2337,0,0,0,0,0,0,-0.1936,-0.1993,-0.1997,-0.2036,-0.2058,-0.2106,-0.2131,-0.216,-0.2216,-0.2226,-0.23,-0.2321,-0.2355,-0.239,-0.2408,-0.2379,-0.2432,-0.2431,-0.2341,-0.2327,-0.2316,-0.235,-0.244,0,0,0,0,0,-0.1931,-0.1979,-0.2003,-0.2039,-0.204,-0.2081,-0.2106,-0.2126,-0.2181,-0.2207,-0.2263,-0.2309,-0.2341,-0.2362,-0.2402,-0.2406,-0.2448,-0.237,-0.2358,-0.2347,-0.2384,-0.2417,-0.2412,-0.2463,-0.2463,-0.2463,0,0,-0.1943,-0.1978,-0.2008,-0.204,-0.2059,-0.2061,-0.21,-0.2126,-0.2132,-0.2217,-0.2254,-0.2289,-0.2341,-0.2339,-0.2351,-0.2367,-0.2337,-0.2343,-0.2333,-0.2377,-0.2413,-0.2408,-0.2404,-0.246,-0.2461,-0.2461,0,0,-0.1967,-0.1997,-0.2021,-0.2038,-0.2059,-0.2067,-0.2075,-0.2102,-0.2115,-0.214,-0.2193,-0.2209,-0.2262,-0.2273,-0.2289,-0.2241,-0.2287,-0.2229,-0.2186,-0.2214,-0.2212,-0.221,-0.2183,-0.218,-0.2206,-0.2206,-0.2206,0,-0.1974,-0.1997,-0.2032,-0.2041,-0.2065,-0.2067,-0.207,-0.207,-0.2122,-0.2144,-0.2138,-0.221,-0.2222,-0.2246,-0.2202,-0.2212,-0.2238,-0.2231,-0.2201,-0.22,-0.2201,-0.2175,-0.2173,-0.22,-0.22,-0.2201,-0.2201,0,-0.1978,-0.2012,-0.2026,-0.2039,-0.2059,-0.2066,-0.206,-0.2069,-0.2068,-0.2079,-0.2104,-0.2115,-0.2169,-0.2123,-0.2143,-0.2137,-0.2154,-0.2193,-0.2239,-0.2189,-0.2163,-0.2163,-0.219,-0.2193,-0.2195,-0.2196,0,0,-0.1953,-0.2019,-0.202,-0.2046,-0.2058,-0.2076,-0.2071,-0.2078,-0.2107,-0.2081,-0.2124,-0.2087,-0.2104,-0.2124,-0.2127,-0.2114,-0.2064,-0.2142,-0.2146,-0.2118,-0.2103,-0.1997,-0.1988,-0.2114,-0.2115,-0.2116,-0.2057,0,-0.1936,-0.1975,-0.2003,-0.2038,-0.2054,-0.2077,-0.2094,-0.2107,-0.2106,-0.2138,-0.2109,-0.2142,-0.2098,-0.2111,-0.2089,-0.2112,-0.2075,-0.2075,-0.2157,-0.2159,-0.2075,-0.1989,-0.1842,-0.1771,-0.2058,-0.2059,-0.2059,0,-0.1896,-0.1946,-0.1979,-0.2074,-0.2079,-0.2093,-0.2145,-0.216,-0.219,-0.2197,-0.2209,-0.2218,-0.2193,-0.2161,-0.2143,-0.2157,-0.212,-0.2104,-0.2103,-0.2069,-0.2057,-0.1883,-0.1763,-0.2061,-0.2061,-0.2061,-0.206,0,-0.1858,-0.1925,-0.1964,-0.1991,-0.2076,-0.2102,-0.2133,-0.2179,-0.2201,-0.2246,-0.2257,-0.2271,-0.2249,-0.2248,-0.2155,-0.2178,-0.2127,-0.2161,-0.2022,-0.2013,-0.1939,-0.1921,-0.2146,-0.2146,-0.2146,-0.2147,-0.2147,0,-0.1834,-0.1868,-0.1955,-0.1987,-0.2038,-0.2104,-0.2151,-0.2193,-0.2247,-0.225,-0.2286,-0.2264,-0.2275,-0.2228,-0.2185,-0.2073,-0.2142,-0.2008,-0.1998,-0.1879,-0.1858,-0.2181,-0.2186,-0.2144,-0.2145,-0.2145,-0.2146,0,-0.1784,-0.1844,-0.1899,-0.1997,-0.2025,-0.206,-0.2142,-0.2166,-0.2236,-0.224,-0.2249,-0.2258,-0.2188,-0.2159,-0.212,-0.2069,-0.2011,-0.195,-0.1771,-0.174,-0.1874,-0.1874,-0.183,-0.1826,-0.1822,-0.182,-0.1817,0,-0.1758,-0.1786,-0.1885,-0.1905,-0.1944,-0.2007,-0.2035,-0.2136,-0.2141,-0.2191,-0.216,-0.2134,-0.204,-0.1947,-0.1863,-0.1775,-0.1863,-0.1613,-0.1628,-0.1851,-0.1846,-0.185,-0.1854,-0.1451,-0.1445,-0.1441,-0.1438,0,-0.1703,-0.1736,-0.1778,-0.1821,-0.1853,-0.1884,-0.1923,-0.1942,-0.2017,-0.2042,-0.2003,-0.1958,-0.1832,-0.1666,-0.1558,-0.1495,-0.1631,-0.1522,-0.1817,-0.1553,-0.1489,-0.1485,-0.1502,-0.14,-0.1404,-0.1406,-0.1408,-0.141,-0.1632,-0.1636,-0.1675,-0.1697,-0.1722,-0.1699,-0.1686,-0.1727,-0.174,-0.1726,-0.1784,-0.1681,-0.1625,-0.1375,-0.1275,-0.1208,-0.1325,-0.1307,-0.1323,-0.1342,-0.1308,-0.1243,-0.1097,-0.1099,-0.11,-0.1102,-0.1103,0,-0.1519,-0.1525,-0.154,-0.1542,-0.1487,-0.1553,-0.1548,-0.1502,-0.1462,-0.1493,-0.1476,-0.1302,-0.1173,-0.1118,-0.094,-0.0906,-0.0924,-0.089,-0.0928,-0.0964,-0.0996,-0.0949,-0.064,-0.0639,-0.0638,-0.0637,0,0,-0.1458,-0.1419,-0.142,-0.1285,-0.1275,-0.1168,-0.1136,-0.1113,-0.1102,-0.1058,-0.104,-0.1137,-0.1094,-0.0896,-0.0823,-0.07,-0.0832,-0.0661,-0.1027,-0.1106,-0.1138,-0.1221,-0.1185,0,0,0,0,0]},{"header":{"parameterUnit":"m.s-1","parameterCategory":2,"la1":30.2991,"la2":30.254,"lo1":-89.0895,"lo2":-89.0444,"dy":0.0017,"dx":0.0017,"nx":28,"ny":28,"refTime":"2023-11-20T03:00:00:Z","depth":"2","parameterNumber":3,"parameterNumberName":"V-component_of_CURRENTS"},"data":[0,0,0,0,0,0,0,0,0,0,0,0,0,0,0,0,0,0,0,0,0,0,0,0,0,0,0,0,0,0,0,0,0,0,0,0,0,0,0,0,0,0,0,0,0,0,0,0,0,0,0,0,0,0,0,0,0,0,-0.0471,-0.0469,0,-0.0356,-0.0355,-0.0354,-0.0249,-0.0248,-0.0247,-0.0245,0.0158,0.0167,0.0176,0,0,0,0,0,0,0,0,0,0,0,0,0,-0.0558,-0.0557,-0.0471,-0.0469,-0.0468,-0.0357,-0.0355,-0.0353,-0.0249,-0.0248,-0.0246,-0.0245,0.0154,0.0166,0.0177,0,0,0,0,0,0,0,0,0,0,0,0,0,-0.0489,-0.0557,-0.0471,-0.0403,-0.0396,-0.0357,-0.0355,-0.0353,-0.025,-0.0248,-0.0246,-0.0244,0.0151,0.0165,0.0179,0.0231,0,0,0.0223,0.0229,0,0,0,0,0,0,0,0,-0.0493,-0.0486,-0.0414,-0.0408,-0.0399,-0.0315,-0.0238,-0.0144,-0.025,-0.0305,-0.0245,-0.0243,0.0025,0.0049,0.0063,0.0249,0.0267,0.0224,0.0233,0.0239,0.0243,0,0,0,0,0,0,0,-0.0498,-0.049,-0.0425,-0.0413,-0.0404,-0.0364,-0.0353,-0.0221,-0.0146,-0.03,-0.0292,-0.0281,0.0031,0.0049,0.0074,0.0273,0.0224,0.0236,0.0245,0.0251,0.0608,0.0609,0,0,0,0,0,0,-0.0517,-0.0495,-0.0429,-0.0422,-0.0443,-0.0364,-0.0351,-0.0344,-0.0153,-0.0125,-0.0282,-0.0276,0.0023,0.0057,0.0089,0.0169,0.0239,0.0252,0.026,0.0607,0.0608,0.0609,0,0,0,0,0,0,-0.052,-0.0513,-0.0433,-0.0456,-0.0443,-0.0365,-0.0357,-0.0343,-0.0311,-0.0144,-0.0109,-0.0264,0.0026,0.0069,0.0203,0.0186,0.0259,0.0272,0.0606,0.0607,0.0609,0.0326,0,0,0,0,0,0,-0.0523,-0.0515,-0.0515,-0.0457,-0.0442,-0.0407,-0.0359,-0.0342,-0.0307,-0.0298,-0.0116,-0.0078,0.0031,0.018,0.0217,0.0207,0.0283,0.0605,0.0607,0.0608,0.0334,0.0317,0.0303,0,0,0,0,0,-0.0527,-0.0526,-0.0516,-0.0508,-0.0446,-0.0407,-0.0396,-0.0334,-0.0309,-0.0298,-0.0184,-0.0083,0.0218,0.0192,0.0235,0.0228,0.0604,0.0606,0.0608,0.0341,0.0321,0.0303,0,0,0,0,0,0,-0.0557,-0.0514,-0.0502,-0.0487,-0.0454,-0.0389,-0.0371,-0.034,-0.025,-0.0233,-0.0079,-0.0033,0.0077,0.0207,0.0174,0.0345,0.0432,0.0443,0.0215,0.0197,0.0182,0.0197,0.0295,0,0,0,0,0,-0.0572,-0.0558,-0.0518,-0.0504,-0.0493,-0.0439,-0.0416,-0.0384,-0.0301,-0.0262,-0.0145,-0.0002,0.0116,0.0196,0.0325,0.0419,0.0513,0.0453,0.0437,0.0422,0.0469,0.0535,0.0527,0.0616,0.0616,0.0616,0,0,-0.058,-0.0552,-0.0545,-0.051,-0.0478,-0.0458,-0.0419,-0.0392,-0.0366,-0.0225,-0.0143,-0.005,0.0131,0.0217,0.0281,0.0325,0.0439,0.0425,0.0409,0.0467,0.0536,0.0526,0.0518,0.0617,0.0617,0.0616,0,0,-0.058,-0.0569,-0.0558,-0.0535,-0.0499,-0.0474,-0.0471,-0.042,-0.0387,-0.0316,-0.0217,-0.0142,0.0058,0.0146,0.0228,0.0222,0.0348,0.0273,0.0209,0.0266,0.0258,0.0253,0.0302,0.0303,0.0267,0.0267,0.0266,0,-0.0592,-0.0576,-0.0549,-0.0529,-0.0513,-0.0484,-0.0474,-0.044,-0.0353,-0.0319,-0.0302,-0.0083,0.0026,0.0139,0.0116,0.0181,0.0242,0.0237,0.0237,0.0234,0.0233,0.0287,0.0291,0.0253,0.0255,0.0256,0.0258,0,-0.0582,-0.0571,-0.0563,-0.0534,-0.0514,-0.0507,-0.0469,-0.0447,-0.042,-0.038,-0.0288,-0.0185,-0.0043,-0.0031,0.0041,0.0093,0.0142,0.0186,0.0256,0.0205,0.0267,0.0276,0.0234,0.0239,0.0243,0.0246,0,0,-0.0603,-0.0568,-0.0565,-0.0564,-0.0525,-0.0515,-0.0479,-0.0441,-0.0416,-0.0364,-0.0317,-0.0204,-0.0172,-0.0073,-0.0008,0.0026,0.0002,0.0089,0.0098,0.0091,0.0126,0.0144,0.0158,0.0026,0.0028,0.0029,0.0147,0,-0.0609,-0.0599,-0.0566,-0.056,-0.0564,-0.0524,-0.0492,-0.0452,-0.0414,-0.0366,-0.0292,-0.0216,-0.0178,-0.015,-0.0114,-0.0002,0.0029,-0.0032,0.0227,0.0236,0.0217,0.0171,0.0148,0.0252,0.0158,0.016,0.0161,0,-0.0611,-0.0611,-0.0613,-0.0595,-0.059,-0.0575,-0.054,-0.0508,-0.0428,-0.0394,-0.0322,-0.0252,-0.0176,-0.0162,-0.0003,-0.0046,0.0035,0.0098,0.0105,0.025,0.0275,0.031,0.0275,0.018,0.0178,0.0177,0.0176,0,-0.0663,-0.0642,-0.0656,-0.0648,-0.0618,-0.0605,-0.0588,-0.0519,-0.0492,-0.0415,-0.0384,-0.0273,-0.0215,-0.0105,0.0028,0.0012,0.0195,0.0194,0.0294,0.0296,0.0404,0.0413,0.0309,0.0309,0.0309,0.0308,0.0308,0,-0.0691,-0.0699,-0.0687,-0.0697,-0.0715,-0.0663,-0.0658,-0.0616,-0.0544,-0.0505,-0.0409,-0.0345,-0.02,-0.0077,0.0031,0.0201,0.0208,0.0302,0.0335,0.0302,0.03,0.0367,0.0372,0.0313,0.0312,0.0311,0.031,0,-0.074,-0.0728,-0.0753,-0.0743,-0.0743,-0.0759,-0.0723,-0.0709,-0.0629,-0.0572,-0.0548,-0.0391,-0.0225,-0.0069,0.0123,0.0213,0.0363,0.0424,0.0369,0.0392,0.0419,0.0409,0.0538,0.054,0.0542,0.0543,0.0544,0,-0.0764,-0.0782,-0.0808,-0.0836,-0.0836,-0.0846,-0.0845,-0.0773,-0.074,-0.0589,-0.0558,-0.0383,-0.025,0.004,0.0235,0.044,0.0433,0.0525,0.0493,0.0428,0.0446,0.0434,0.0422,0.0507,0.0508,0.0508,0.0509,0,-0.0817,-0.0827,-0.0855,-0.0918,-0.094,-0.0962,-0.0944,-0.093,-0.0818,-0.075,-0.0613,-0.0495,-0.0172,0.0068,0.0345,0.0452,0.0483,0.0542,0.0519,0.0443,0.0406,0.0421,0.0409,0.0514,0.0513,0.0513,0.0512,0.0512,-0.0856,-0.0901,-0.0941,-0.0995,-0.1029,-0.1061,-0.1062,-0.1018,-0.0972,-0.0823,-0.0699,-0.0488,-0.0194,0.0195,0.0401,0.0579,0.0569,0.0594,0.0589,0.0585,0.055,0.0517,0.0639,0.0639,0.064,0.064,0.064,0,-0.09,-0.0947,-0.1011,-0.1072,-0.1114,-0.1117,-0.1104,-0.1064,-0.1005,-0.0861,-0.0725,-0.0432,-0.0129,0.0173,0.0478,0.0651,0.0625,0.0655,0.0598,0.0592,0.0588,0.055,0.0641,0.0642,0.0642,0.0643,0,0,-0.0926,-0.0998,-0.1034,-0.1121,-0.1159,-0.1184,-0.1174,-0.1104,-0.0988,-0.0848,-0.0688,-0.0479,-0.0098,0.0107,0.0348,0.0514,0.0492,0.0509,0.0489,0.0389,0.0382,0.0537,0.0472,0,0,0,0,0]}],[{"header":{"parameterUnit":"m.s-1","parameterCategory":2,"la1":30.2991,"la2":30.254,"lo1":-89.0895,"lo2":-89.0444,"dy":0.0017,"dx":0.0017,"nx":28,"ny":28,"refTime":"2023-11-20T03:00:00:Z","depth":"4","parameterNumber":2,"parameterNumberName":"U-component_of_CURRENTS"},"data":[0,0,0,0,0,0,0,0,0,0,0,0,0,0,0,0,0,0,0,0,0,0,0,0,0,0,0,0,0,0,0,0,0,0,0,0,0,0,0,0,0,0,0,0,0,0,0,0,0,0,0,0,0,0,0,0,0,0,-0.1265,-0.1266,0,-0.1298,-0.1298,-0.1298,-0.1329,-0.133,-0.1331,-0.1331,-0.1363,-0.1363,-0.1363,0,0,0,0,0,0,0,0,0,0,0,0,0,-0.1189,-0.119,-0.1265,-0.1266,-0.1266,-0.1298,-0.1298,-0.1298,-0.1329,-0.133,-0.1331,-0.1332,-0.1363,-0.1363,-0.1363,0,0,0,0,0,0,0,0,0,0,0,0,0,-0.122,-0.1191,-0.1265,-0.1288,-0.129,-0.1298,-0.1298,-0.1298,-0.1329,-0.133,-0.1331,-0.1332,-0.1363,-0.1363,-0.1364,-0.1346,0,0,-0.1365,-0.1365,0,0,0,0,0,0,0,0,-0.1218,-0.1222,-0.1284,-0.1286,-0.1289,-0.1313,-0.1283,-0.1315,-0.1329,-0.1311,-0.1331,-0.1332,-0.1347,-0.1349,-0.1349,-0.1348,-0.1349,-0.1365,-0.1365,-0.1365,-0.1365,0,0,0,0,0,0,0,-0.1216,-0.1221,-0.1275,-0.1284,-0.1288,-0.1283,-0.1288,-0.1289,-0.1321,-0.1313,-0.1316,-0.1324,-0.1349,-0.1349,-0.135,-0.135,-0.1365,-0.1365,-0.1365,-0.1365,-0.1387,-0.1387,0,0,0,0,0,0,-0.1219,-0.1219,-0.1274,-0.1277,-0.1258,-0.1284,-0.129,-0.1302,-0.1321,-0.1326,-0.1323,-0.1325,-0.1347,-0.135,-0.1351,-0.1402,-0.1365,-0.1365,-0.1366,-0.1386,-0.1387,-0.1387,0,0,0,0,0,0,-0.1217,-0.1223,-0.1273,-0.125,-0.1257,-0.1285,-0.1298,-0.1302,-0.1329,-0.133,-0.1334,-0.1349,-0.1348,-0.1351,-0.1369,-0.1401,-0.1366,-0.1366,-0.1386,-0.1386,-0.1387,-0.1459,0,0,0,0,0,0,-0.1215,-0.1222,-0.1242,-0.1251,-0.1258,-0.1288,-0.1297,-0.1302,-0.1332,-0.1336,-0.1353,-0.1355,-0.1349,-0.1369,-0.137,-0.1401,-0.1366,-0.1385,-0.1386,-0.1387,-0.1456,-0.1461,-0.1466,0,0,0,0,0,-0.1212,-0.1231,-0.1243,-0.1251,-0.1281,-0.1288,-0.1291,-0.1312,-0.1333,-0.1341,-0.1356,-0.1356,-0.1374,-0.1369,-0.137,-0.1402,-0.1385,-0.1386,-0.1387,-0.1453,-0.146,-0.1466,0,0,0,0,0,0,-0.1209,-0.1237,-0.125,-0.1278,-0.1288,-0.1295,-0.1312,-0.1326,-0.1344,-0.1359,-0.1361,-0.1363,-0.139,-0.1379,-0.1375,-0.1407,-0.1379,-0.138,-0.143,-0.1436,-0.1441,-0.1466,-0.1366,0,0,0,0,0,-0.1218,-0.1247,-0.1257,-0.1285,-0.129,-0.1307,-0.1319,-0.1331,-0.1345,-0.1356,-0.1367,-0.1378,-0.1388,-0.14,-0.1399,-0.1419,-0.1412,-0.1437,-0.1443,-0.1447,-0.1466,-0.1484,-0.1494,-0.139,-0.139,-0.139,0,0,-0.1228,-0.1248,-0.1266,-0.1288,-0.1301,-0.132,-0.1316,-0.134,-0.137,-0.1355,-0.1401,-0.1397,-0.1395,-0.1417,-0.1429,-0.1419,-0.1467,-0.1448,-0.1453,-0.147,-0.1486,-0.1497,-0.1506,-0.139,-0.139,-0.139,0,0,-0.1252,-0.1275,-0.1302,-0.1315,-0.1339,-0.1345,-0.1358,-0.1373,-0.1393,-0.1423,-0.1424,-0.1444,-0.1455,-0.1465,-0.1471,-0.1504,-0.1491,-0.1499,-0.1557,-0.1574,-0.1583,-0.1592,-0.1576,-0.1583,-0.1507,-0.1507,-0.1507,0,-0.1265,-0.13,-0.1308,-0.1334,-0.1358,-0.1363,-0.1392,-0.1408,-0.1431,-0.1454,-0.1448,-0.1487,-0.1483,-0.1527,-0.1538,-0.1522,-0.1515,-0.1537,-0.1584,-0.1592,-0.1599,-0.1582,-0.1588,-0.151,-0.151,-0.151,-0.1509,0,-0.1293,-0.1336,-0.1351,-0.1393,-0.1413,-0.1438,-0.1458,-0.1484,-0.1509,-0.1526,-0.1571,-0.1565,-0.1589,-0.159,-0.1579,-0.163,-0.1602,-0.1587,-0.1575,-0.1615,-0.1592,-0.1598,-0.1516,-0.1514,-0.1513,-0.1512,0,0,-0.1285,-0.1359,-0.1368,-0.1408,-0.1449,-0.1469,-0.152,-0.156,-0.1609,-0.1624,-0.1683,-0.1698,-0.1694,-0.17,-0.1687,-0.1709,-0.1744,-0.1678,-0.1677,-0.1675,-0.1763,-0.1613,-0.1603,-0.1742,-0.1743,-0.1745,-0.172,0,-0.1307,-0.1376,-0.1406,-0.148,-0.1514,-0.1547,-0.1598,-0.1641,-0.1671,-0.1721,-0.1732,-0.1769,-0.1735,-0.1751,-0.1769,-0.1751,-0.1764,-0.1751,-0.1714,-0.1713,-0.1585,-0.1607,-0.1751,-0.1723,-0.1725,-0.1725,-0.1726,0,-0.1313,-0.1367,-0.1444,-0.1542,-0.156,-0.1606,-0.1691,-0.1736,-0.1798,-0.1823,-0.1859,-0.1857,-0.1888,-0.1853,-0.1856,-0.1848,-0.1817,-0.18,-0.1798,-0.1642,-0.1573,-0.1677,-0.1735,-0.1734,-0.1734,-0.1733,-0.1733,0,-0.1294,-0.1391,-0.1462,-0.1492,-0.1595,-0.1645,-0.1697,-0.177,-0.1811,-0.1886,-0.191,-0.1947,-0.1946,-0.1945,-0.1874,-0.1881,-0.186,-0.1859,-0.1695,-0.1683,-0.1797,-0.1789,-0.1873,-0.1873,-0.1873,-0.1873,-0.1873,0,-0.1292,-0.1353,-0.1466,-0.1506,-0.1594,-0.1662,-0.1747,-0.1805,-0.1878,-0.1898,-0.1954,-0.1947,-0.1971,-0.1939,-0.1904,-0.1787,-0.1872,-0.171,-0.1673,-0.1822,-0.1817,-0.1799,-0.1791,-0.1872,-0.1872,-0.1872,-0.1873,0,-0.1257,-0.1333,-0.1421,-0.1547,-0.1589,-0.165,-0.1758,-0.1795,-0.1883,-0.1907,-0.1926,-0.1954,-0.1895,-0.1882,-0.1852,-0.1783,-0.1721,-0.1658,-0.1793,-0.1764,-0.1535,-0.153,-0.1506,-0.15,-0.1496,-0.1492,-0.1489,0,-0.124,-0.1288,-0.1434,-0.1473,-0.1533,-0.1628,-0.167,-0.1782,-0.1792,-0.1862,-0.1836,-0.1833,-0.1815,-0.1656,-0.1669,-0.1597,-0.1569,-0.1546,-0.1576,-0.1533,-0.1501,-0.1504,-0.1506,-0.1481,-0.148,-0.1479,-0.1478,0,-0.1205,-0.127,-0.1337,-0.1412,-0.1473,-0.1527,-0.1585,-0.1597,-0.1675,-0.1778,-0.1699,-0.1664,-0.1586,-0.1542,-0.148,-0.1432,-0.158,-0.1499,-0.1509,-0.1538,-0.1503,-0.1477,-0.1484,-0.1462,-0.1464,-0.1466,-0.1467,0,-0.1167,-0.1196,-0.1268,-0.1317,-0.1377,-0.1365,-0.1441,-0.1429,-0.1468,-0.1551,-0.1506,-0.1503,-0.1544,-0.145,-0.1391,-0.1333,-0.1329,-0.1314,-0.1334,-0.1352,-0.131,-0.1245,-0.1096,0,0,0,0,0,-0.1113,-0.1113,-0.1153,-0.1186,-0.1227,-0.1248,-0.133,-0.1395,-0.1485,-0.1388,-0.1449,-0.1366,-0.1291,-0.1299,-0.1202,-0.1313,-0.1329,-0.1198,-0.1323,-0.1375,-0.1393,-0.1356,0,0,0,0,0,0,-0.1071,-0.1107,-0.1108,-0.1031,-0.1019,-0.1038,-0.1083,-0.1162,-0.1122,-0.123,-0.119,-0.1278,-0.1216,-0.1299,-0.1164,-0.1166,-0.1219,-0.1217,-0.1214,-0.1364,-0.1381,-0.1395,-0.1364,0,0,0,0,0]},{"header":{"parameterUnit":"m.s-1","parameterCategory":2,"la1":30.2991,"la2":30.254,"lo1":-89.0895,"lo2":-89.0444,"dy":0.0017,"dx":0.0017,"nx":28,"ny":28,"refTime":"2023-11-20T03:00:00:Z","depth":"4","parameterNumber":3,"parameterNumberName":"V-component_of_CURRENTS"},"data":[0,0,0,0,0,0,0,0,0,0,0,0,0,0,0,0,0,0,0,0,0,0,0,0,0,0,0,0,0,0,0,0,0,0,0,0,0,0,0,0,0,0,0,0,0,0,0,0,0,0,0,0,0,0,0,0,0,0,-0.0402,-0.0402,0,-0.0369,-0.0369,-0.0369,-0.0337,-0.0337,-0.0337,-0.0336,-0.0306,-0.0305,-0.0305,0,0,0,0,0,0,0,0,0,0,0,0,0,-0.0423,-0.0423,-0.0402,-0.0402,-0.0401,-0.0369,-0.0369,-0.0369,-0.0337,-0.0337,-0.0337,-0.0336,-0.0306,-0.0305,-0.0305,0,0,0,0,0,0,0,0,0,0,0,0,0,-0.0404,-0.0423,-0.0402,-0.0382,-0.038,-0.037,-0.0369,-0.0368,-0.0338,-0.0337,-0.0336,-0.0336,-0.0306,-0.0305,-0.0305,-0.0312,0,0,-0.0303,-0.0302,0,0,0,0,0,0,0,0,-0.0405,-0.0404,-0.0385,-0.0383,-0.0381,-0.0357,-0.0365,-0.035,-0.0338,-0.0354,-0.0336,-0.0336,-0.0324,-0.0321,-0.0316,-0.0311,-0.031,-0.0303,-0.0302,-0.0302,-0.0302,0,0,0,0,0,0,0,-0.0407,-0.0405,-0.0389,-0.0385,-0.0382,-0.0369,-0.0366,-0.0362,-0.0342,-0.0352,-0.035,-0.0346,-0.0322,-0.0317,-0.0316,-0.0309,-0.0303,-0.0302,-0.0302,-0.0301,-0.0304,-0.0305,0,0,0,0,0,0,-0.0412,-0.0406,-0.039,-0.0388,-0.0392,-0.037,-0.0366,-0.0365,-0.0342,-0.0338,-0.0347,-0.0345,-0.0319,-0.0316,-0.0314,-0.0298,-0.0302,-0.0301,-0.0301,-0.0304,-0.0305,-0.0305,0,0,0,0,0,0,-0.0413,-0.0411,-0.0391,-0.0396,-0.0393,-0.037,-0.0369,-0.0365,-0.0362,-0.0338,-0.0334,-0.0349,-0.0318,-0.0315,-0.0311,-0.0297,-0.0301,-0.03,-0.0303,-0.0304,-0.0305,-0.028,0,0,0,0,0,0,-0.0414,-0.0412,-0.0419,-0.0397,-0.0393,-0.039,-0.037,-0.0365,-0.036,-0.0358,-0.0338,-0.0335,-0.0317,-0.0313,-0.0311,-0.0296,-0.03,-0.0303,-0.0304,-0.0305,-0.028,-0.028,-0.0279,0,0,0,0,0,-0.0415,-0.0422,-0.042,-0.0418,-0.0401,-0.039,-0.0387,-0.0369,-0.0361,-0.0364,-0.0348,-0.0335,-0.0317,-0.0312,-0.031,-0.0295,-0.0302,-0.0303,-0.0305,-0.028,-0.028,-0.0279,0,0,0,0,0,0,-0.0434,-0.0419,-0.0416,-0.0419,-0.0409,-0.0385,-0.0386,-0.0376,-0.0366,-0.0365,-0.0342,-0.0337,-0.033,-0.0326,-0.0321,-0.0303,-0.0308,-0.0309,-0.029,-0.029,-0.0289,-0.0263,-0.0299,0,0,0,0,0,-0.0444,-0.0446,-0.0429,-0.0434,-0.043,-0.0412,-0.0407,-0.0396,-0.0381,-0.0376,-0.0364,-0.0351,-0.0333,-0.0323,-0.0318,-0.0307,-0.0276,-0.0299,-0.0298,-0.0298,-0.0277,-0.0214,-0.0204,-0.0309,-0.0309,-0.0309,0,0,-0.0455,-0.0445,-0.0449,-0.0439,-0.0429,-0.042,-0.0407,-0.0403,-0.0388,-0.0376,-0.0362,-0.0356,-0.0335,-0.0319,-0.0314,-0.031,-0.0259,-0.0299,-0.0298,-0.0278,-0.0214,-0.0203,-0.0193,-0.0309,-0.0309,-0.0309,0,0,-0.0465,-0.0469,-0.0468,-0.0459,-0.0447,-0.0436,-0.0437,-0.0421,-0.0407,-0.0399,-0.0379,-0.0353,-0.0353,-0.0309,-0.0291,-0.0287,-0.0266,-0.0309,-0.027,-0.0209,-0.0199,-0.0189,-0.0156,-0.0144,-0.0299,-0.0299,-0.0299,0,-0.048,-0.0473,-0.0467,-0.0457,-0.0449,-0.0443,-0.0435,-0.042,-0.0405,-0.0385,-0.0396,-0.0349,-0.0332,-0.027,-0.0267,-0.0278,-0.0261,-0.0268,-0.0204,-0.0194,-0.0184,-0.0152,-0.0139,-0.0298,-0.0298,-0.0298,-0.0298,0,-0.0477,-0.0476,-0.0475,-0.046,-0.0452,-0.045,-0.0426,-0.0419,-0.041,-0.0385,-0.0346,-0.0316,-0.028,-0.0274,-0.0265,-0.0194,-0.0212,-0.0215,-0.0195,-0.0171,-0.0141,-0.0127,-0.0296,-0.0296,-0.0297,-0.0297,0,0,-0.0496,-0.0479,-0.0478,-0.0476,-0.0455,-0.0453,-0.0423,-0.039,-0.0368,-0.0343,-0.0301,-0.0248,-0.0233,-0.0211,-0.0194,-0.0131,-0.0053,-0.0147,-0.0145,-0.0097,0.0057,0.0018,0.0029,-0.0051,-0.0049,-0.0046,0.0046,0,-0.0497,-0.0493,-0.0471,-0.0468,-0.0469,-0.0443,-0.0417,-0.0385,-0.0359,-0.0324,-0.0258,-0.0229,-0.0209,-0.02,-0.0127,-0.0087,-0.0014,-0.0079,0.0012,0.0015,-0.0007,0.0046,-0.0037,0.0056,0.0059,0.0062,0.0063,0,-0.0493,-0.0495,-0.0495,-0.048,-0.0475,-0.0469,-0.0433,-0.0408,-0.034,-0.0316,-0.025,-0.0221,-0.0127,-0.0127,0.0014,-0.0039,0.0022,0.0066,0.007,0.0043,0.0003,0.003,0.0089,0.0087,0.0085,0.0083,0.0082,0,-0.0522,-0.0508,-0.0516,-0.0512,-0.0492,-0.0481,-0.0467,-0.0411,-0.0389,-0.0316,-0.0298,-0.0188,-0.0152,-0.0045,0.0044,0.0026,0.0187,0.0174,0.021,0.0206,0.0203,0.0192,0.0306,0.0306,0.0306,0.0306,0.0305,0,-0.0529,-0.0537,-0.0539,-0.0547,-0.056,-0.0521,-0.0514,-0.0478,-0.0421,-0.0396,-0.0307,-0.0263,-0.013,-0.0034,0.0057,0.017,0.0205,0.024,0.0243,0.0204,0.0192,0.0212,0.0199,0.0309,0.0308,0.0308,0.0307,0,-0.0558,-0.0555,-0.0577,-0.0575,-0.0579,-0.0593,-0.0576,-0.0566,-0.05,-0.0465,-0.0446,-0.0316,-0.0189,-0.0055,0.0112,0.017,0.0289,0.0327,0.0267,0.0261,0.0262,0.025,0.0378,0.0378,0.0378,0.0378,0.0377,0,-0.0569,-0.0585,-0.0623,-0.0654,-0.066,-0.0675,-0.0684,-0.0626,-0.0607,-0.0498,-0.0483,-0.0347,-0.0256,-0.0042,0.01,0.0284,0.0307,0.0357,0.0336,0.0287,0.0278,0.0265,0.0254,0.0377,0.0377,0.0377,0.0377,0,-0.06,-0.0623,-0.0649,-0.0719,-0.0752,-0.0779,-0.078,-0.0766,-0.0686,-0.0632,-0.051,-0.0378,-0.023,-0.0055,0.0089,0.0222,0.0314,0.0355,0.0356,0.0337,0.0287,0.0275,0.0264,0.0376,0.0376,0.0376,0.0376,0,-0.063,-0.067,-0.0717,-0.077,-0.0826,-0.0856,-0.085,-0.0806,-0.0766,-0.0628,-0.0592,-0.0403,-0.0284,-0.0085,0.0049,0.0172,0.0199,0.0219,0.0227,0.023,0.0154,0.0067,0.0116,0,0,0,0,0,-0.0651,-0.0698,-0.0761,-0.0817,-0.0872,-0.0896,-0.0898,-0.0871,-0.0793,-0.0723,-0.0648,-0.0504,-0.0273,-0.0155,-0.0039,0.003,0.0205,0.0167,0.0227,0.0372,0.0373,0.0305,0,0,0,0,0,0,-0.0669,-0.0735,-0.0765,-0.084,-0.0881,-0.093,-0.0934,-0.0886,-0.0826,-0.0731,-0.0602,-0.0501,-0.0273,-0.0343,-0.0043,-0.0,0.0045,0.0291,0.0293,0.0371,0.0372,0.0373,0.0304,0,0,0,0,0]}]]